This demonstration page uses our WeatherBlox Daily Observations layout. Learn more.

Left ArrowRight Arrow

39.01783, -85.05884

Hourly Observations for December 5, 2020

Temp ( °F °C ) Dew Point ( °F °C ) Humidity (%) Winds ( mph kmh ) Pressure ( in mb ) Visibility ( mi km ) Precip ( " mm )
12:52 am 00:52 Mostly Clear 37 2.8 31 -0.6 79 79 WSW 8 13 29.99 1016 10 16 N/A
1:52 am 01:52 Clear 34 1.1 31 -0.6 89 89 W 6 9 30.00 1016 9 14 N/A
2:52 am 02:52 Clear 34 1.1 30 -1.1 85 85 W 6 9 30.01 1016 10 16 N/A
3:52 am 03:52 Clear 33 0.6 30 -1.1 89 89 N N/A 30.02 1017 10 16 N/A
4:52 am 04:52 Clear 32 undefined 29 -1.7 88 88 W 7 11 30.04 1017 10 16 N/A
5:52 am 05:52 Clear 31 -0.6 28 -2.2 89 89 NW 8 13 30.06 1018 10 16 N/A
6:52 am 06:52 Clear 31 -0.6 27 -2.8 85 85 NW 7 11 30.07 1018 7 11 N/A
7:52 am 07:52 Partly Cloudy with Mist and Fog 29 -1.7 26 -3.3 89 89 WNW 5 7 30.09 1019 5 8 N/A
8:18 am 08:18 Mostly Cloudy with Mist and Fog 31 -0.6 28 -2.2 89 89 W 5 7 30.13 1020 4 6 N/A
8:52 am 08:52 Cloudy with Mist and Fog 32 undefined 28 -2.2 85 85 W 5 7 30.11 1020 4 6 N/A
9:52 am 09:52 Mostly Cloudy with Haze 35 1.7 30 -1.1 82 82 VRB 6 9 30.12 1020 6 10 N/A
10:26 am 10:26 Partly Cloudy 37 2.8 30 -1.1 76 76 NW 6 9 30.16 1021 7 11 N/A
10:52 am 10:52 Sunny 39 3.9 30 -1.1 70 70 N 8 13 30.13 1020 9 14 N/A
11:52 am 11:52 Mostly Sunny 42 5.6 30 -1.1 62 62 NNW 7 11 30.12 1020 10 16 N/A
12:52 pm 12:52 Partly Cloudy 43 6.1 30 -1.1 60 60 NW 8 13 30.11 1020 10 16 N/A
1:52 pm 13:52 Mostly Cloudy 46 7.8 30 -1.1 54 54 VRB 5 7 30.09 1019 10 16 N/A
2:22 pm 14:22 Partly Cloudy 45 7.2 29 -1.7 54 54 NNW 8 13 30.10 1019 10 16 N/A
2:52 pm 14:52 Partly Cloudy 45 7.2 28 -2.2 52 52 N 8 13 30.09 1019 10 16 N/A
3:52 pm 15:52 Partly Cloudy 44 6.7 27 -2.8 51 51 N 7 11 30.09 1019 10 16 N/A
4:52 pm 16:52 Partly Cloudy 42 5.6 28 -2.2 58 58 N 9 15 30.10 1019 10 16 N/A
5:52 pm 17:52 Mostly Clear 37 2.8 28 -2.2 70 70 N 10 17 30.10 1019 10 16 N/A
6:52 pm 18:52 Mostly Clear 34 1.1 27 -2.8 76 76 N 7 11 30.11 1020 10 16 N/A
7:52 pm 19:52 Clear 33 0.6 26 -3.3 75 75 N 6 9 30.11 1020 10 16 N/A
8:52 pm 20:52 Clear 32 undefined 25 -3.9 75 75 N 7 11 30.12 1020 10 16 N/A
9:52 pm 21:52 Partly Cloudy 32 undefined 25 -3.9 75 75 N 6 9 30.12 1020 10 16 N/A
10:52 pm 22:52 Partly Cloudy 30 -1.1 24 -4.4 79 79 N 6 9 30.11 1020 10 16 N/A
11:52 pm 23:52 Clear 29 -1.7 23 -5 78 78 NNE 6 9 30.11 1020 10 16 N/A

Powered by AerisWeather